Location: Albany
(35.0170°S, 117.8920°E)
Time: 10:11:04
(UTC+08:00)

S-56A Canister/Altair - Pass Details

Date: 30 January 2021
Orbit: 632 x 2501 km, 38.9° (Epoch: 25 February)

Event Time Altitude Azimuth Distance (km) Brightness Sun altitude
Rises 16:39:56 0° 252° (WSW) 5,995 13.1 30.6°
Reaches altitude 10° 16:43:42 10° 252° (WSW) 5,092 13.1 29.8°
Maximum altitude 16:59:03 86° 337° (NNW) 2,453 10.6 26.7°
Drops below altitude 10° 17:12:26 10° 64° (ENE) 4,513 11.0 23.9°
Sets 17:15:33 0° 64° (ENE) 5,308 11.3 23.3°
